Home   Weather   Ipswich   Past weeks

Flag for United Kingdom Past Weather in Ipswich, England, United Kingdom — Yesterday and Last 2 Weeks

Now
54 °F

Low clouds.


Feels Like: 50 °F
Forecast: 51 / 56 °F
Wind: 13 mph from Southwest

Location: Wattisham

Current Time: Dec 9, 2016 at 11:41:26 am

Latest Report: Dec 9, 2016 at 9:50 am


Visibility: 3 mi

Pressure: 30.27 "Hg

Humidity: 94%

Dew Point: 52 °F

Location of IpswichLocation

Past Weather in Ipswich — Graph

°F

Ipswich Temperature Yesterday

Maximum temperature yesterday: 55 °F (at 1:50 pm)
Minimum temperature yesterday: 46 °F (at 8:50 pm)
Average temperature yesterday: 50 °F

High & Low Weather Summary for the Past Weeks

 TemperatureHumidityPressure
High55 °F (Dec 8, 1:50 pm)100% (Nov 26, 4:50 am)30.57 "Hg (Nov 26, 4:50 am)
Low25 °F (Nov 30, 3:50 am)50% (Nov 29, 1:50 pm)30.12 "Hg (Nov 26, 3:50 am)
Average42 °F86%30.30 "Hg
* Reported Nov 24 9:50 am — Dec 9 9:50 am, Ipswich, Weather by CustomWeather, © 2016

Note: Actual official high and low records may vary slightly from our data, if they occured in-between our weather recording intervals... More about our weather records

Advertising

Ipswich Weather History for the Previous 24 Hours

Scroll right to see more
 ConditionsComfort  
Time TempWeatherWind HumidityBarometerVisibility
9:50 am
Fri, Dec 9
54 °FLow clouds.13 mph94%30.27 "Hg3 mi
8:50 am54 °FFog.14 mph94%30.27 "Hg5 mi
7:50 am54 °FFog.13 mph94%30.24 "Hg4 mi
6:50 am52 °FFog.10 mph100%30.27 "Hg2 mi
5:50 am52 °FFog.10 mph100%30.24 "Hg1 mi
4:50 am52 °FFog.8 mph100%30.27 "Hg0 mi
3:50 am52 °FFog.8 mph100%30.27 "Hg1 mi
2:50 am52 °FFog.8 mph100%30.27 "Hg2 mi
1:50 am52 °FFog.6 mph94%30.30 "Hg2 mi
12:50 am52 °FFog.9 mph94%30.30 "Hg2 mi
11:50 pm
Thu, Dec 8
50 °FFog.9 mph100%30.30 "Hg1 mi
10:50 pm50 °FFog.7 mph100%30.30 "Hg1 mi
9:50 pm46 °FFog.6 mph100%30.27 "Hg0 mi
8:50 pm46 °FFog.6 mph100%30.30 "Hg0 mi
7:50 pm48 °FFog.7 mph94%30.27 "Hg2 mi
6:50 pm50 °FFog.10 mph100%30.27 "Hg5 mi
5:50 pm52 °FPassing clouds.12 mph94%30.24 "HgN/A
4:50 pm54 °FPassing clouds.15 mph88%30.21 "HgN/A
3:50 pm54 °FPassing clouds.14 mph94%30.21 "HgN/A
2:50 pm55 °FPartly sunny.15 mph88%30.18 "HgN/A
1:50 pm55 °FOvercast.15 mph88%30.18 "HgN/A
12:50 pm54 °FMostly cloudy.15 mph88%30.18 "HgN/A
11:50 am54 °FMostly cloudy.12 mph82%30.21 "HgN/A
Weather by CustomWeather, © 2016

See weather overviewHow to use our weather pages